Location: Newark
(28.9833°N, 10.0667°W)
Time: 10:51:02
(UTC+00:00)

Hubble Space Telescope - Pass Details

Date: 11 December 2019
Orbit: 536 x 540 km, 28.5° (Epoch: 22 January)

Event Time Altitude Azimuth Distance (km) Brightness Sun altitude
Exits shadow 05:41:08 - 202° (SSW) 2,579 4.2 -21.8°
Reaches altitude 10° 05:44:53 10° 165° (SSE) 1,780 3.8 -21.0°
Maximum altitude 05:45:49 11° 152° (SSE) 1,739 3.9 -20.8°
Drops below altitude 10° 05:46:46 10° 139° (SE) 1,782 4.2 -20.6°
Sets 05:50:49 0° 100° (E) 2,675 5.9 -19.7°
